Regional Weather Roundup
Issued by NWS

Home | Current Version | Previous Version | Graphics & Text | Print | Product List | Glossary On
Versions: 1 2 3 4 5 6 7 8 9 10 11 12 13 14 15 16 17 18 19 20 21 22 23 24 25 26
000
ASUS45 KTFX 132310
RWRMT
MONTANA REGIONAL WEATHER ROUNDUP
NATIONAL WEATHER SERVICE GREAT FALLS MT
400 PM MST WED DEC 13 2017

NOTE: "FAIR" INDICATES FEW OR NO CLOUDS BELOW 12000 FEET WITH NO
SIGNIFICANT WEATHER AND/OR OBSTRUCTIONS TO VISIBILITY.

MTZ001>007-043-140000-
WEST OF THE DIVIDE

CITY           SKY/WX    TMP DP  RH WIND       PRES   REMARKS
KALISPELL      FAIR      30  23  75 CALM      30.46R
MISSOULA       CLOUDY    29  25  85 W6        30.40R WCI  23
BUTTE          FLURRIES  29  25  85 W5        30.27R
MULLAN PASS    FOG       22  22 100 CALM      30.32R VSB 1/4
ANACONDA         N/A     28  27  93 N5        30.30R
DEER LODGE       N/A     28  28 100 NE5       30.33R
EUREKA           N/A     25  18  74 MISG      30.51R
HAMILTON         N/A     28  27  93 CALM      30.39R
LIBBY            N/A     30  23  74 CALM      30.47R
PLAINS           N/A     31  23  72 CALM      30.45R
RONAN            N/A     28  24  85 CALM      30.44R
$$

MTZ008-052>055-140000-
SOUTHWEST MONTANA

CITY           SKY/WX    TMP DP  RH WIND       PRES   REMARKS
BOZEMAN        LGT SNOW  29  27  92 CALM      30.27R FOG
DILLON         LGT SNOW  32  30  92 N5        30.24R FOG
W YELLOWSTONE  MOCLDY    23  19  86 CALM      30.19S
ENNIS          LGT SNOW  30  28  93 NW5       30.26S
THREE FORKS      N/A     28  26  92 CALM      30.24R
TWIN BRIDGES     N/A     33  27  79 CALM      30.20R
$$

MTZ009-010-012-014-046-048-049-054-140000-
EAST SLOPES AND CENTRAL MONTANA

CITY           SKY/WX    TMP DP  RH WIND       PRES   REMARKS
CUT BANK       MOCLDY    43  20  39 NW14      30.25R
GREAT FALLS    FAIR      35  27  72 SW10      30.26R WCI  27
MALMSTROM AFB  FAIR      33  29  84 SW8       30.27R WCI  27
HELENA         FOG       27  27 100 CALM      30.29S VSB 3/4
BOWMANS CRNR   FAIR      31  30  96 S9        30.25R WCI  23
CHOTEAU          N/A     39  21  48 N9        30.29R
FAIRFIELD      FAIR      38  21  48 NW7       30.26R
POWER          FAIR      33  18  52 NW9       30.25R WCI  26
RAYNESFORD     FAIR      36  28  71 SW6       30.25R WCI  31
ULM            FAIR      35  29  81 SW7       30.27R WCI  29
$$

MTZ011-013-016-021-045-047-050-051-140000-
NORTH CENTRAL MONTANA

CITY           SKY/WX    TMP DP  RH WIND       PRES   REMARKS
HAVRE          MOCLDY    37  23  56 SW16      30.21R WCI  28
LEWISTOWN      FAIR      35  26  69 SW10      30.21S WCI  27
N BAR RANCH    MOCLDY    36  19  51 NW17G25   30.19S WCI  25
CHINOOK          N/A     39  25  56 W12       30.19R WCI  32
DENTON         FAIR      37  21  53 MISG      30.18R
GEYSER         FAIR      36  27  71 W15       30.22R WCI  26
GRASS RANGE    FAIR      38  22  54 W17       30.17R WCI  28
STANFORD       FAIR      35  27  74 NW16      30.22R WCI  25
WINIFRED       FAIR      36  22  55 W9        30.19S WCI  29
$$

MTZ017>020-022>027-061-062-140000-
NORTHEAST MONTANA

CITY           SKY/WX    TMP DP  RH WIND       PRES   REMARKS
GLASGOW        MOCLDY    39  26  59 W8        30.09S
GLENDIVE       FAIR      38  27  64 W14       30.07S WCI  30
JORDAN           N/A     40  24  53 W12       30.13R
SIDNEY         FAIR      37  26  64 W13       30.05S WCI  29
WOLF POINT     CLOUDY    41  27  57 W12       30.09R
MALTA          CLEAR     37  25  60 W7        30.14S
PLENTYWOOD       N/A     36  28  75 W8        30.02R WCI  29
POPLAR           N/A     39  27  60 W9        30.07R
SCOBEY           N/A     37  23  57 W10       30.02S WCI  30
$$

MTZ028>42-056>058-140000-
SOUTHCENTRAL AND SOUTHEAST MONTANA

CITY           SKY/WX    TMP DP  RH WIND       PRES   REMARKS
BAKER          CLOUDY    37  26  64 W14       30.07R WCI  28
BILLINGS       MOCLDY    42  30  62 W14       30.18R
LIVINGSTON     FLURRIES  33  33 100 W7        30.23R WCI  27
MILES CITY     CLOUDY    41  25  53 NW13      30.12R
BIG TIMBER     PTCLDY    32  32 100 SW9       30.25S FOG     WCI  24
EKALAKA          N/A     35  23  62 W10       30.04R WCI  27
FORSYTH          N/A     43  21  42 W8        30.14S
LAUREL           N/A     41  30  65 W9        30.19R
ROUNDUP          N/A     42  17  36 W9        30.08R
$$

REGIONAL REPORTS...DAKOTAS

CITY           SKY/WX    TMP DP  RH WIND       PRES   REMARKS
WILLISTON      FAIR      38  25  59 NW14      30.02S WCI  30
MINOT          CLOUDY    35  26  69 NW16      29.95R WCI  25
DICKINSON      FAIR      35  23  61 NW18      29.98S WCI  24
BEACH          CLOUDY    36  25  64 NW15      30.07S WCI  26
CROSBY         FAIR      30  27  86 W7        30.00F WCI  23
TIOGA          FAIR      30  30 100 NW6       30.00R WCI  24
WATFORD CITY   FAIR      37  25  60 NW10G17   30.01R WCI  30
BISMARCK       CLOUDY    36  27  69 NW12G22   29.98R WCI  28
GRAND FORKS    FLURRIES  21  15  78 N23       29.94R WCI   5
FARGO          CLOUDY    24  18  77 N18       29.92R WCI  10
BUFFALO SD       N/A     38  24  57 NW15      29.99R WCI  29
RAPID CITY     FAIR      41  23  48 N25G32    30.03S
$$

REGIONAL REPORTS...WYOMING/IDAHO/WASHINGTON

CITY           SKY/WX    TMP DP  RH WIND       PRES   REMARKS
GILLETTE       MOCLDY    38  18  44 NW14      30.10R WCI  30
SHERIDAN       CLOUDY    41  21  44 N7        30.15R
BUFFALO WY     CLOUDY    40  19  43 NW24G36   30.12S
CODY           LGT SNOW  32  30  93 NE9       30.20R FOG     WCI  24
YELLOWSTONE LA   N/A     23  20  88 CALM      30.18S
IDAHO FALLS    CLOUDY    26  22  84 CALM      30.25R
SALMON         CLOUDY    25  20  81 CALM      30.36R
BOISE          CLOUDY    25  21  85 NW7       30.38F WCI  17
SPOKANE        CLOUDY    30  25  81 CALM      30.48S
$$

REGIONAL REPORTS...ALBERTA

CITY           SKY/WX    TMP DP  RH WIND       PRES   REMARKS
EDMONTON       CLEAR     39  27  60 W9        30.23R
CALGARY        PTCLDY    39  25  56 N8        30.30R
LETHBRIDGE     MOCLDY    41  21  45 NW8       30.28R
MEDICINE HAT   PTCLDY    43  27  52 W10G18    30.21R
$$

REGIONAL REPORTS...SASKATCHEWAN

CITY           SKY/WX    TMP DP  RH WIND       PRES   REMARKS
SWIFT CURRENT  CLEAR     36  25  64 W15G22    30.06R WCI  26
REGINA         MOCLDY    32  28  86 NW12      29.99R WCI  23
SASKATOON      PTCLDY    34  28  80 W13       29.99R WCI  25
$$




USA.gov is the U.S. government's official web portal to all federal, state and local government web resources and services.